Change the Weather History Date:

Thursday, December 30, 2004

  Actual Average Record
Temperature  
Mean Temperature 65 °F -  
Max Temperature 75 °F 71 °F 83 °F (1990)
Min Temperature 55 °F 54 °F 37 °F (1961)
Growing Degree Days 15 (Base 50)    
Moisture  
Dew Point 53 °F    
Average Humidity 72    
Maximum Humidity 93    
Minimum Humidity 43    
Precipitation  
Precipitation 0.00 in - - ()
Sea Level Pressure  
Sea Level Pressure 30.34 in    
Wind  
Wind Speed 6 mph (ENE)    
Max Wind Speed 12 mph    
Max Gust Speed -    
Visibility 10 miles    
Events      
Averages and records for this station are not official NWS values.
T = Trace of Precipitation, MM = Missing Value Source: NWS Daily Summary

Daily Weather History Graph

Daily Weather History Graph

Search for Another Location

Airport or City:

Trip Planner

Search our weather history database for the weather conditions in past years. The results will help you decide how hot, cold, wet, or windy it might be!

Date:

Astronomy

Dec. 30, 2004 Rise Set
Actual Time 7:21 AM EST 5:45 PM EST
Civil Twilight 6:55 AM EST 6:11 PM EST
Nautical Twilight 6:26 AM EST 6:40 PM EST
Astronomical Twilight 5:58 AM EST 7:09 PM EST
Moon 9:24 PM EST (12/30) 10:19 AM EST (12/30)
Length of Visible Light 11h 15m
Length of Day
10h 24m
Waning Gibbous, 86% of the Moon is Illuminated
Dec 30
Waning Gibbous
Jan 3
Last Quarter
Jan 10
New
Jan 17
First Quarter
Jan 25
Full

Hourly Weather History & Observations

Time (EST) Temp. Dew Point Humidity Pressure Visibility Wind Dir Wind Speed Gust Speed Precip Events Conditions
12:53 AM 59.0 °F 53.1 °F 81% 30.38 in 10.0 mi SSE 5.8 mph - N/A   Overcast
1:53 AM 59.0 °F 53.1 °F 81% 30.35 in 10.0 mi East 3.5 mph - N/A   Clear
2:53 AM 57.0 °F 53.1 °F 87% 30.35 in 10.0 mi ENE 3.5 mph - N/A   Clear
3:53 AM 57.0 °F 53.1 °F 87% 30.34 in 10.0 mi NE 5.8 mph - N/A   Clear
4:53 AM 55.9 °F 53.1 °F 90% 30.34 in 10.0 mi NE 5.8 mph - N/A   Clear
5:53 AM 55.9 °F 52.0 °F 87% 30.35 in 10.0 mi NE 5.8 mph - N/A   Clear
6:53 AM 55.0 °F 53.1 °F 93% 30.36 in 10.0 mi NE 5.8 mph - N/A   Clear
7:53 AM 55.0 °F 53.1 °F 93% 30.38 in 10.0 mi NE 4.6 mph - N/A   Clear
8:53 AM 57.9 °F 53.1 °F 84% 30.38 in 10.0 mi NE 6.9 mph - N/A   Clear
9:53 AM 61.0 °F 54.0 °F 78% 30.40 in 10.0 mi ENE 6.9 mph - N/A   Clear
10:53 AM 66.0 °F 55.0 °F 68% 30.38 in 10.0 mi ENE 6.9 mph - N/A   Clear
11:53 AM 69.1 °F 55.0 °F 61% 30.36 in 10.0 mi East 6.9 mph - N/A   Clear
12:53 PM 71.1 °F 53.1 °F 53% 30.33 in 10.0 mi East 11.5 mph - N/A   Clear
1:53 PM 71.1 °F 54.0 °F 55% 30.30 in 10.0 mi ENE 6.9 mph - N/A   Clear
2:53 PM 75.0 °F 51.1 °F 43% 30.28 in 10.0 mi East 10.4 mph - N/A   Clear
3:53 PM 73.0 °F 51.1 °F 46% 30.29 in 10.0 mi East 11.5 mph - N/A   Partly Cloudy
4:53 PM 72.0 °F 52.0 °F 49% 30.29 in 10.0 mi East 11.5 mph - N/A   Overcast
5:53 PM 68.0 °F 53.1 °F 59% 30.29 in 10.0 mi East 9.2 mph - N/A   Partly Cloudy
6:53 PM 66.0 °F 55.0 °F 68% 30.32 in 10.0 mi East 8.1 mph - N/A   Clear
7:53 PM 64.0 °F 55.0 °F 73% 30.33 in 10.0 mi East 5.8 mph - N/A   Clear
8:53 PM 64.0 °F 55.0 °F 73% 30.34 in 10.0 mi East 8.1 mph - N/A   Clear
9:53 PM 63.0 °F 55.0 °F 75% 30.35 in 10.0 mi East 4.6 mph - N/A   Clear
10:53 PM 63.0 °F 53.1 °F 70% 30.35 in 10.0 mi East 8.1 mph - N/A   Clear
11:53 PM 62.1 °F 53.1 °F 72% 30.34 in 10.0 mi East 6.9 mph - N/A   Clear